Location: Newark
(40.9833°N, 0.0333°W)
Time: 00:22:28
(UTC+00:00)

Altair - Pass Details

Date: 28 October 2020
Orbit: 1502 x 1682 km, 47.2° (Epoch: 03 December)

Event Time Altitude Azimuth Distance (km) Brightness Sun altitude
Exits shadow 05:50:37 - 247° (WSW) 4,686 9.5 -7.4°
Rises 05:50:45 0° 247° (WSW) 4,644 9.5 -7.4°
Reaches altitude 10° 05:53:44 10° 248° (WSW) 3,677 9.0 -6.8°
Maximum altitude 06:03:03 81° 336° (NNW) 1,572 7.6 -5.1°
Drops below altitude 10° 06:12:46 10° 65° (ENE) 3,815 10.4 -3.4°
Sets 06:15:56 0° 66° (ENE) 4,826 11.0 -2.8°
